This is the latest recevied weather packets stored in our database for station/object DN9EL-10. If no packets are shown the sender has not sent any weather packets the latest 10 day(s).
| Time | Temp. | Humidity | Pressure | Rain* | Wind** | Luminosity | Snow |
|---|---|---|---|---|---|---|---|
| 1777178186 | 5.56° C | 55% | 966.7 hPa | - | - | - | - |
| 1777177286 | 5.56° C | 55% | 966.4 hPa | - | - | - | - |
| 1777176386 | 5.56° C | 54% | 966.3 hPa | - | - | - | - |
| 1777175486 | 6.11° C | 54% | 966 hPa | - | - | - | - |
| 1777174586 | 6.11° C | 54% | 965.8 hPa | - | - | - | - |
| 1777173686 | 6.11° C | 53% | 965.6 hPa | - | - | - | - |
| 1777172786 | 6.11° C | 54% | 965.4 hPa | - | - | - | - |
| 1777171886 | 6.67° C | 54% | 965.2 hPa | - | - | - | - |
| 1777170986 | 6.67° C | 54% | 965 hPa | - | - | - | - |
| 1777170091 | 6.67° C | 53% | 964.9 hPa | - | - | - | - |
| 1777169185 | 6.67° C | 53% | 964.7 hPa | - | - | - | - |
| 1777168285 | 7.22° C | 53% | 964.6 hPa | - | - | - | - |
| 1777167385 | 7.22° C | 53% | 964.5 hPa | - | - | - | - |
| 1777166490 | 7.78° C | 53% | 964.3 hPa | - | - | - | - |
| 1777165585 | 7.78° C | 53% | 964.3 hPa | - | - | - | - |
| 1777164685 | 7.78° C | 52% | 964.1 hPa | - | - | - | - |
| 1777163785 | 8.33° C | 53% | 963.9 hPa | - | - | - | - |
| 1777162885 | 8.33° C | 53% | 963.6 hPa | - | - | - | - |
| 1777161984 | 8.89° C | 52% | 963.5 hPa | - | - | - | - |
| 1777161084 | 8.89° C | 52% | 963.2 hPa | - | - | - | - |
| 1777160184 | 8.89° C | 51% | 962.9 hPa | - | - | - | - |
| 1777159284 | 9.44° C | 51% | 962.9 hPa | - | - | - | - |
| 1777158384 | 9.44° C | 50% | 962.6 hPa | - | - | - | - |
| 1777157484 | 10° C | 50% | 962.3 hPa | - | - | - | - |
| 1777156584 | 10° C | 49% | 962 hPa | - | - | - | - |
* Rain since midnight (hover to see other rain measurements)
** Current wind speed in m/s (hover to see current wind gust speed)